Vertical_Velocity
1 1 1 3 1 -0 1 2 1 -1 -0 -1 -0 1 -1 -1 -1 -0 -3 0 -1 0 -0 -1 1 1 2 -1 -0 1 1 0 1 5 11 1 -1 -3 1 2 -2 -1 -1 -3 -1
2 1 2 0 1 -0 0 1 -1 1 1 -0 0 -1 1 -3 -4 -1 -2 -0 -1 -3 -3 0 1 -1 1 1 -1 -0 1 3 17 -1 -1 -7 2 1 0 1 -1 -3 -2 -2 3
-2 3 1 2 -2 1 1 -0 0 3 1 -1 -0 -1 -1 -1 -8 8 -0 -1 -2 0 -3 0 1 1 1 -1 -0 2 3 1 -6 -9 -1 -1 -2 1 1 0 2 -5 -2 0 0
-3 0 2 2 2 0 0 1 1 -1 1 3 -1 -1 -3 -3 -14 -1 -1 1 2 -1 -3 -1 1 1 -1 1 2 -1 -1 2 3 -2 -1 3 -2 -2 -0 3 -0 -5 3 -1 -1
4 -1 4 0 2 1 -1 1 0 0 -1 0 -1 -0 -5 -3 -14 7 -2 -1 0 -4 -0 -1 -0 -0 -0 -0 -0 -2 3 -2 -1 -1 0 -0 0 1 -0 1 0 -0 0 -3 -2
1 4 -0 2 -0 1 -0 0 0 2 1 -3 1 -0 -5 -1 -8 -1 2 -1 -0 -3 -2 -2 0 -1 1 0 -1 2 -0 -1 -1 0 -2 0 -0 -2 0 -0 -0 1 -2 -0 -4
2 3 6 1 2 1 -2 0 1 2 -0 -2 -3 -5 -5 11 -3 2 -3 -0 -0 -3 -1 -1 -1 1 1 -1 -0 4 -1 0 1 3 1 -1 1 2 -2 -8 4 2 -2 -1 -3
-1 2 4 2 -1 -2 -2 -1 1 2 -1 2 -3 -7 3 -3 -4 1 -3 1 -2 -2 -3 -2 -0 2 1 0 2 -3 -2 2 4 -1 6 0 8 4 -1 -5 2 -7 9 -5 1
-5 2 4 3 4 1 -4 2 0 -0 3 -4 -1 -7 14 -2 -2 -6 -1 -1 -2 1 -1 -2 -1 0 -1 3 -3 2 4 -2 1 -3 -1 3 4 4 -4 4 0 4 -16 9 0
1 -4 3 4 3 -2 -4 -10 2 0 -2 -1 -7 -6 -0 8 -4 -2 1 -1 -3 -1 -1 -2 -3 1 -3 -4 7 5 1 2 1 -6 -2 -1 12 -3 -7 3 6 -8 -2 1 0
-0 4 -2 3 1 -3 6 7 -6 -0 -6 9 -3 3 -13 -1 6 -4 4 -3 0 3 -1 -1 -6 2 4 2 2 1 0 -2 1 13 -3 -4 -0 8 6 -1 -1 -1 -12 -3 2
27 3 4 -2 -1 6 -10 -6 19 -35 -13 3 -2 6 -18 4 -1 -1 7 -0 2 3 -3 -6 2 4 -0 -0 -2 2 2 1 4 2 -2 -2 -2 -1 4 2 -1 1 -16 -6 8
34 35 4 -4 4 -21 8 24 -30 -11 -6 10 7 -10 2 -3 1 -2 -7 7 2 1 -0 -2 4 2 -1 1 -1 3 1 3 -0 1 -4 -3 -0 4 -2 -0 4 -3 -3 -3 -3
-1 40 38 15 -26 11 -1 36 -25 4 -28 -2 -10 -7 -4 -4 -12 3 -1 6 -7 -2 3 -3 3 -1 1 1 0 -0 5 1 -1 -1 -3 5 -10 -5 -4 0 4 2 2 -0 -5
6 11 23 14 19 -6 43 25 -15 27 -68 22 6 -1 11 -23 14 17 1 -9 1 1 -7 22 0 1 -3 7 -2 3 0 -3 1 0 1 4 -14 10 -6 -4 2 4 -1 -1 -1
2 18 24 4 4 21 15 0 -1 0 -67 -4 -6 2 10 11 4 8 -0 -2 3 -4 -5 1 -1 -5 3 2 1 3 -0 1 1 2 -11 8 -1 6 -5 -7 -5 2 6 3 1
16 10 25 7 -2 24 17 10 23 -50 31 3 2 -1 12 4 7 -2 5 -13 -6 -2 1 6 5 -0 4 -3 -1 -1 1 0 -6 -10 1 9 -11 2 -4 -7 -11 6 1 2 -1
6 6 23 3 16 -4 10 16 -10 20 0 13 -7 2 -7 2 3 1 -1 -4 -5 -7 -2 -1 -11 -4 19 6 2 3 0 2 -4 3 2 -5 -7 -21 -9 12 -11 -11 2 -4 -3
14 8 25 4 10 -2 15 5 -44 17 28 26 -20 -10 6 -5 4 -3 -0 -7 -3 1 -4 -4 -3 -3 -5 11 -0 2 -14 23 -2 3 -1 2 -9 -5 7 0 -2 -5 -0 -6 -2
15 15 25 15 3 -1 21 -34 -9 8 -6 7 -19 2 4 7 3 -1 2 15 -3 -3 -0 -2 -5 -3 -1 3 -2 -12 6 -2 -2 -6 0 8 1 -6 -5 12 -3 -1 -8 2 -3
34 24 22 23 16 17 -37 -32 2 4 5 -5 3 -1 4 -2 10 1 -1 -1 2 2 -0 2 2 6 -12 5 7 -3 -1 -1 6 -8 7 9 -0 4 -15 -3 9 1 -2 -12 -9
32 27 -3 33 12 -9 -42 5 4 8 -1 14 -17 1 1 9 2 -7 -2 0 4 -2 -3 5 1 -10 1 13 1 -0 1 -9 -12 9 4 6 0 -6 2 -7 -1 -3 -10 -4 -6
4 -0 21 50 -4 -39 20 -4 1 12 -7 3 2 -1 -0 0 -6 -2 10 -7 4 -4 -4 -4 -7 -3 -4 -5 1 -3 3 13 4 -8 6 -2 -3 4 2 8 -1 -7 -8 -7 -3
1 -1 26 15 2 11 -0 12 -7 9 -1 1 6 -3 9 -1 5 10 -11 -2 7 -5 7 -5 1 6 0 4 -4 -8 -2 1 -2 -21 24 24 13 -9 -1 5 -5 -13 -8 -6 -0
-1 -8 4 -9 -48 -24 2 18 13 1 -6 -5 -2 -4 2 -0 11 -4 -3 -1 4 -0 15 -4 -2 7 14 18 -12 -6 -1 12 -8 8 -15 34 17 10 3 -5 -24 -16 -12 -6 -0
8 5 2 4 -2 -1 13 -20 -4 -1 -13 -3 2 7 9 2 12 16 -1 1 6 8 15 -14 -10 2 1 4 13 -20 2 -5 6 5 -9 -1 13 10 16 6 -4 -3 -8 5 -4
13 11 11 2 -3 10 -26 -6 26 30 -5 -0 13 7 3 -1 6 4 7 -0 1 18 17 15 6 9 -12 13 9 -37 16 -0 1 0 3 -4 24 3 7 4 7 3 15 3 -1
Height
5799 5803 5807 5811 5814 5817 5821 5823 5825 5828 5829 5831 5834 5835 5836 5836 5837 5838 5838 5839 5839 5839 5838 5837 5838 5838 5839 5840 5842 5843 5846 5848 5853 5853 5852 5843 5847 5848 5851 5851 5851 5853 5851 5852 5852
5790 5794 5798 5802 5806 5810 5813 5816 5819 5821 5823 5825 5828 5830 5831 5831 5832 5834 5835 5833 5834 5835 5834 5833 5834 5834 5835 5836 5837 5839 5841 5845 5850 5845 5845 5841 5840 5844 5845 5848 5847 5847 5848 5848 5849
5780 5785 5789 5794 5798 5801 5805 5809 5812 5815 5818 5819 5820 5823 5825 5826 5826 5831 5829 5829 5829 5830 5830 5829 5829 5830 5831 5832 5833 5835 5837 5838 5837 5836 5839 5840 5837 5838 5839 5842 5842 5841 5844 5844 5845
5769 5775 5779 5784 5788 5793 5797 5801 5804 5807 5810 5812 5814 5815 5817 5820 5820 5823 5824 5824 5823 5824 5824 5824 5824 5825 5826 5827 5828 5829 5831 5832 5833 5833 5833 5836 5835 5834 5834 5836 5836 5836 5839 5839 5839
5757 5763 5769 5774 5779 5783 5787 5791 5795 5799 5802 5805 5807 5809 5809 5812 5814 5817 5817 5817 5816 5817 5817 5818 5818 5818 5820 5821 5823 5823 5826 5826 5827 5829 5828 5829 5829 5830 5830 5830 5831 5832 5834 5834 5834
5745 5751 5757 5763 5769 5773 5778 5782 5787 5791 5794 5796 5799 5801 5802 5806 5806 5811 5811 5811 5810 5809 5810 5810 5811 5811 5815 5815 5817 5818 5818 5820 5822 5824 5823 5824 5824 5825 5827 5824 5826 5828 5829 5829 5829
5731 5739 5746 5752 5758 5763 5768 5772 5777 5781 5785 5787 5789 5791 5794 5801 5799 5804 5803 5803 5802 5801 5802 5802 5804 5805 5807 5809 5811 5812 5812 5813 5816 5817 5819 5819 5821 5821 5821 5818 5823 5823 5824 5824 5825
5717 5726 5733 5740 5747 5753 5757 5762 5767 5771 5775 5779 5780 5781 5786 5789 5791 5795 5795 5796 5795 5793 5795 5794 5797 5799 5800 5803 5806 5806 5807 5808 5811 5810 5813 5814 5818 5816 5815 5815 5818 5815 5819 5819 5820
5701 5711 5720 5726 5733 5740 5747 5751 5755 5760 5765 5768 5771 5772 5779 5781 5785 5784 5788 5788 5787 5787 5787 5787 5790 5792 5794 5796 5799 5801 5804 5804 5806 5803 5806 5810 5811 5808 5808 5810 5812 5811 5808 5813 5815
5687 5694 5704 5713 5719 5726 5734 5740 5744 5748 5752 5756 5761 5765 5769 5774 5773 5776 5779 5780 5778 5778 5780 5781 5781 5782 5787 5789 5795 5796 5797 5799 5801 5796 5800 5802 5807 5803 5802 5803 5806 5803 5804 5805 5807
5667 5678 5688 5698 5705 5712 5721 5728 5733 5736 5741 5749 5751 5754 5756 5761 5764 5769 5769 5770 5770 5769 5773 5773 5771 5778 5784 5783 5786 5788 5789 5792 5795 5797 5792 5794 5797 5801 5800 5798 5799 5797 5793 5797 5801
5657 5662 5673 5683 5692 5700 5707 5712 5719 5720 5726 5735 5740 5743 5745 5747 5753 5759 5760 5763 5761 5762 5764 5764 5766 5774 5772 5775 5778 5781 5784 5787 5789 5790 5787 5788 5788 5793 5793 5793 5792 5792 5786 5790 5794
5646 5650 5658 5669 5678 5684 5692 5701 5702 5708 5715 5725 5729 5730 5739 5737 5742 5747 5747 5753 5750 5753 5754 5756 5761 5763 5764 5768 5770 5774 5778 5780 5780 5781 5779 5780 5782 5785 5784 5784 5786 5784 5783 5785 5785
5637 5640 5641 5648 5660 5669 5678 5687 5689 5696 5701 5707 5714 5716 5723 5728 5728 5736 5737 5743 5742 5741 5750 5748 5752 5754 5757 5760 5765 5766 5771 5770 5772 5772 5773 5774 5773 5775 5774 5776 5778 5777 5778 5778 5780
5623 5630 5630 5640 5650 5659 5674 5669 5673 5686 5687 5696 5701 5707 5714 5713 5724 5728 5729 5728 5732 5736 5741 5743 5744 5746 5750 5756 5756 5759 5761 5762 5764 5765 5764 5767 5766 5771 5767 5765 5768 5770 5773 5774 5773
5607 5614 5621 5624 5636 5648 5648 5651 5659 5668 5668 5681 5686 5692 5701 5709 5712 5714 5716 5719 5727 5726 5727 5730 5736 5738 5743 5746 5748 5752 5753 5755 5756 5756 5752 5762 5760 5761 5762 5755 5755 5758 5762 5765 5763
5590 5599 5608 5613 5626 5631 5633 5642 5647 5652 5665 5673 5675 5680 5693 5699 5702 5702 5706 5711 5712 5717 5718 5726 5729 5728 5734 5738 5741 5743 5746 5747 5747 5747 5748 5753 5750 5753 5750 5749 5745 5747 5747 5748 5748
5576 5585 5596 5600 5606 5612 5618 5627 5626 5647 5656 5662 5664 5670 5678 5687 5691 5693 5698 5702 5703 5707 5712 5714 5716 5719 5729 5731 5736 5735 5737 5738 5739 5742 5742 5740 5741 5740 5739 5740 5739 5738 5739 5738 5736
5559 5568 5576 5581 5588 5596 5603 5605 5623 5637 5647 5654 5652 5659 5667 5676 5681 5686 5689 5693 5696 5698 5703 5706 5709 5714 5713 5723 5724 5725 5728 5736 5731 5732 5732 5733 5731 5732 5732 5730 5730 5728 5728 5726 5725
5539 5547 5555 5565 5570 5579 5584 5596 5616 5626 5633 5638 5642 5648 5659 5667 5672 5675 5679 5685 5688 5691 5696 5697 5700 5702 5708 5712 5714 5717 5723 5723 5722 5722 5723 5723 5726 5724 5721 5721 5719 5719 5717 5715 5712
5514 5519 5535 5548 5550 5552 5564 5591 5604 5613 5621 5627 5635 5641 5648 5655 5662 5665 5671 5676 5678 5684 5687 5689 5693 5697 5696 5702 5708 5710 5710 5710 5715 5714 5714 5714 5716 5712 5709 5707 5707 5707 5704 5700 5697
5489 5494 5518 5530 5522 5534 5559 5578 5589 5599 5609 5620 5624 5633 5636 5645 5649 5655 5662 5665 5671 5673 5674 5681 5684 5684 5690 5695 5698 5697 5701 5702 5701 5703 5703 5705 5702 5699 5700 5699 5698 5695 5690 5687 5686
5464 5482 5499 5509 5503 5531 5551 5563 5573 5585 5596 5605 5615 5623 5627 5634 5639 5645 5651 5652 5658 5660 5664 5667 5669 5675 5675 5680 5684 5691 5692 5693 5694 5691 5691 5692 5687 5687 5687 5689 5686 5681 5676 5676 5674
5446 5460 5473 5482 5501 5525 5540 5552 5560 5572 5583 5593 5605 5611 5618 5623 5630 5635 5637 5642 5646 5651 5655 5656 5660 5664 5669 5672 5672 5674 5678 5679 5679 5678 5682 5680 5679 5676 5674 5673 5668 5665 5664 5662 5659
5430 5443 5453 5460 5485 5516 5528 5541 5551 5561 5573 5582 5593 5602 5609 5615 5620 5623 5624 5631 5635 5639 5641 5644 5650 5653 5658 5659 5659 5660 5661 5664 5666 5668 5667 5673 5669 5668 5666 5656 5652 5650 5647 5646 5643
5421 5434 5443 5460 5481 5503 5516 5529 5542 5556 5564 5575 5584 5593 5600 5607 5611 5615 5610 5619 5624 5628 5630 5630 5637 5641 5645 5647 5647 5648 5650 5650 5650 5655 5657 5657 5656 5658 5654 5647 5644 5638 5637 5634 5629
5396 5425 5441 5450 5465 5482 5507 5531 5544 5548 5556 5566 5575 5579 5587 5594 5598 5601 5603 5607 5612 5617 5619 5621 5625 5629 5630 5634 5632 5632 5637 5641 5643 5641 5645 5645 5647 5640 5638 5634 5629 5625 5623 5619 5612